This is the latest recevied weather packets stored in our database for station/object NI0Z. If no packets are shown the sender has not sent any weather packets the latest 10 day(s).
| Time | Temp. | Humidity | Pressure | Rain* | Wind** | Luminosity | Snow |
|---|---|---|---|---|---|---|---|
| 1777752641 | 15.56° C | 36% | - | 0 mm | - | - | - |
| 1777752336 | 16.11° C | 33% | - | 0 mm | - | - | - |
| 1777752035 | 16.67° C | 38% | - | 0 mm | - | - | - |
| 1777751732 | 16.11° C | 39% | - | 0 mm | - | - | - |
| 1777751428 | 16.11° C | 36% | - | 0 mm | - | - | - |
| 1777751125 | 16.11° C | 38% | - | 0 mm | - | - | - |
| 1777750821 | 16.11° C | 36% | - | 0 mm | - | - | - |
| 1777750518 | 15.56° C | 33% | - | 0 mm | - | - | - |
| 1777750215 | 15.56° C | 36% | - | 0 mm | - | - | - |
| 1777749910 | 15.56° C | 37% | - | 0 mm | - | - | - |
| 1777749608 | 15.56° C | 33% | - | 0 mm | - | - | - |
| 1777749305 | 15.56° C | 36% | - | 0 mm | - | - | - |
| 1777749003 | 15.56° C | 43% | - | 0 mm | - | - | - |
| 1777748700 | 15° C | 37% | - | 0 mm | - | - | - |
| 1777748396 | 15° C | 39% | - | 0 mm | - | - | - |
| 1777748092 | 15° C | 38% | - | 0 mm | - | - | - |
| 1777747789 | 14.44° C | 40% | - | 0 mm | - | - | - |
| 1777747484 | 15.56° C | 38% | - | 0 mm | - | - | - |
| 1777747181 | 15° C | 40% | - | 0 mm | - | - | - |
| 1777746877 | 15° C | 37% | - | 0 mm | - | - | - |
| 1777746572 | 15° C | 41% | - | 0 mm | - | - | - |
| 1777746268 | 15° C | 39% | - | 0 mm | - | - | - |
| 1777745964 | 15° C | 40% | - | 0 mm | - | - | - |
| 1777745663 | 14.44° C | 40% | - | 0 mm | - | - | - |
| 1777745361 | 15° C | 39% | - | 0 mm | - | - | - |
* Rain latest hour (hover to see other rain measurements)
** Current wind speed in m/s (hover to see current wind gust speed)